Weather History for Winnipeg, MB

Change the Weather History Date:

Monday, March 10, 2014

  Actual Average Record
Temperature  
Mean Temperature 27 °F -  
Max Temperature 37 °F 20 °F 42 °F (2012)
Min Temperature 17 °F 3 °F -14 °F (2003)
Degree Days  
Heating Degree Days 38    
Moisture  
Dew Point 24 °F    
Average Humidity 86    
Maximum Humidity 100    
Minimum Humidity 75    
Precipitation  
Precipitation 0.00 in - - ()
Sea Level Pressure  
Sea Level Pressure 29.61 in    
Wind  
Wind Speed 8 mph ()    
Max Wind Speed 16 mph    
Max Gust Speed -    
Visibility 13.4 miles    
Events      
Averages and records for this station are not official NWS values.
T = Trace of Precipitation, MM = Missing Value Source: Averaged Metar Reports

Daily Weather History Graph

Daily Weather History Graph

Search for Another Location

Airport:

Trip Planner

Search our weather history database for the weather conditions in past years. The results will help you decide how hot, cold, wet, or windy it might be!

Date:

Astronomy

Mar. 10, 2014 Rise Set
Actual Time 7:53 AM CDT 7:26 PM CDT
Civil Twilight 7:21 AM CDT 7:58 PM CDT
Nautical Twilight 6:43 AM CDT 8:35 PM CDT
Astronomical Twilight 6:05 AM CDT 9:13 PM CDT
Moon 1:47 PM CDT (3/10) 4:29 AM CDT (3/10)
Length of Visible Light 12h 37m
Length of Day
11h 32m
Waxing Gibbous, 70% of the Moon is Illuminated
Mar 10
Waxing Gibbous
Mar 16
Full
Mar 23
Last Quarter
Mar 30
New
Apr 7
First Quarter

Hourly Weather History & Observations

Time (CDT) Temp. Windchill Dew Point Humidity Pressure Visibility Wind Dir Wind Speed Gust Speed Precip Events Conditions
12:00 AM 21.2 °F 14.9 °F 19.4 °F 93% 29.55 in 15.0 mi South 4.6 mph - N/A   Mostly Cloudy
1:00 AM 19.4 °F 11.5 °F 19.4 °F 100% 29.53 in 3.0 mi South 5.8 mph - N/A   Mostly Cloudy
2:00 AM 19.4 °F 14.3 °F 19.4 °F 100% 29.51 in 3.0 mi SSW 3.5 mph - N/A   Mostly Cloudy
3:00 AM 19.4 °F 9.5 °F 17.6 °F 93% 29.49 in 4.0 mi SSW 8.1 mph - N/A   Scattered Clouds
4:00 AM 23.0 °F 12.4 °F 21.2 °F 93% 29.50 in 10.0 mi WSW 10.4 mph - N/A   Scattered Clouds
5:00 AM 17.6 °F 4.3 °F 17.6 °F 100% 29.51 in 15.0 mi West 12.7 mph - N/A   Partly Cloudy
6:00 AM 19.4 °F 8.6 °F 17.6 °F 93% 29.54 in 15.0 mi WNW 9.2 mph - N/A   Partly Cloudy
7:00 AM 19.4 °F 7.9 °F 17.6 °F 93% 29.55 in 15.0 mi West 10.4 mph - N/A   Partly Cloudy
8:00 AM 19.4 °F 11.5 °F 17.6 °F 93% 29.55 in 15.0 mi West 5.8 mph - N/A   Scattered Clouds
9:00 AM 26.6 °F 16.2 °F 24.8 °F 93% 29.56 in 15.0 mi West 11.5 mph - N/A   Mostly Cloudy
10:00 AM 30.2 °F 19.8 °F 24.8 °F 80% 29.56 in 15.0 mi West 13.8 mph - N/A   Mostly Cloudy
11:00 AM 32.0 °F 21.6 °F 26.6 °F 80% 29.57 in 15.0 mi West 15.0 mph - N/A   Mostly Cloudy
12:00 PM 35.6 °F 28.0 °F 28.4 °F 75% 29.59 in 15.0 mi WNW 10.4 mph - N/A   Mostly Cloudy
1:00 PM 37.4 °F 28.2 °F 30.2 °F 75% 29.60 in 15.0 mi WNW 16.1 mph - N/A   Mostly Cloudy
2:00 PM 37.4 °F 28.5 °F 30.2 °F 75% 29.62 in 15.0 mi West 15.0 mph - N/A   Partly Cloudy
3:00 PM 37.4 °F 30.3 °F 30.2 °F 75% 29.63 in 15.0 mi WNW 10.4 mph - N/A   Scattered Clouds
4:00 PM 37.4 °F 30.8 °F 30.2 °F 75% 29.64 in 15.0 mi West 9.2 mph - N/A   Mostly Cloudy
5:00 PM 35.6 °F 28.6 °F 30.2 °F 81% 29.66 in 15.0 mi WNW 9.2 mph - N/A   Scattered Clouds
5:30 PM 35.6 °F 28.0 °F 30.2 °F 81% 29.67 in 15.0 mi WNW 10.4 mph - N/A   Mostly Cloudy
6:00 PM 35.6 °F 28.0 °F 30.2 °F 81% 29.68 in 15.0 mi West 10.4 mph - N/A   Scattered Clouds
7:00 PM 33.8 °F 27.0 °F 28.4 °F 81% 29.69 in 15.0 mi West 8.1 mph - N/A   Scattered Clouds
8:00 PM 32.0 °F 23.0 °F 26.6 °F 80% 29.73 in 15.0 mi West 11.5 mph - N/A   Scattered Clouds
9:00 PM 28.4 °F 18.5 °F 24.8 °F 86% 29.74 in 15.0 mi WNW 11.5 mph - N/A   Scattered Clouds
10:00 PM 26.6 °F 16.8 °F 23.0 °F 86% 29.76 in 15.0 mi NW 10.4 mph - N/A   Mostly Cloudy
11:00 PM 26.6 °F 16.2 °F 23.0 °F 86% 29.79 in 15.0 mi NNE 11.5 mph - N/A   Mostly Cloudy